THORAD DELTA 1 DEB, 8786

Orbit data source: Space-Track

THORAD DELTA 1 DEB, 8786 is space debris in SSO originally from a launch on Fri, 15 Nov 1974 UTC launched from the Air Force Western Test Range (AFWTR). Debris objects in space refer to the collection of defunct objects orbiting the Earth. Examples of debris include non-operational satellites, rocket bodies, and fragments generated from explosions, collisions, or faulty payload assembly.

Loading next visibility...
Identifier
8786, 1974-089DN
Orbit
SSO
Country
Flag of USUS
Related business
Manufacturer
Unknown
Mission
Spacecraft
Bus & Motor
Unknown
Mass
Unknown
Launch date (UTC)
1974-11-15 (51 years ago)
Launch vehicle
Unknown
Launch site
Air Force Western Test Range (AFWTR)
Object type
Payload
Rocket body
Debris
Shape & HBR
Unknown shape, 0.1 m
Radar Cross Section
Small (<0.1 m²)

Expand to show TLE details & history
Last TLE update: 11 hours ago

TLE from 11 hours ago
0 THORAD DELTA 1 DEB
1 08786U 74089DN  25288.51355959  .00000035  00000-0  55750-3 0  9997
2 08786 101.9387  26.5403 0053280 100.5935 284.9553 12.44394293309785
Epoch: 2025-10-15T12:19Z
TLE epoch observation values (Epoch: 2025-10-15T12:19:31.548Z)
Latitude
24.4085°
Longitude
171.89334°
Altitude
1,480.059 km
Speed
7.13 km/s
True Right ascension
01h 24m 14s
True Declination
24° 17' 28"
Sunlit
Object was in full shadow at epoch
Visualization orbit readout
Latitude
Unknown
Longitude
Unknown
Altitude
Unknown
Speed
Unknown
Apparent Right ascension
Unknown
Apparent Declination
Unknown
Sunlit
N/A
Visualization observer readout
Local Sidereal Time
17:44:37
Azimuth
Unknown
Elevation
Unknown
Doppler factor
Unknown
Orbital elements
Apogee altitude
1,527.493 km
Perigee altitude
1,443.697 km
Semi-major axis
7,863.732 km
Eccentricity
0.00533
Inclination
101.9387°
RAAN
26.5403°
Arg. of periapsis
100.5935°
True anomaly
284.36443°
Mean anomaly
284.9553°
Eccentric anomaly
284.65997°
Mean motion
3.11243 °/min
Orbital period
115.67 mins
BSTAR
0.0005575
Loading maneuver chart data...
Computing Atmospheric mass density...

Documentation

Showing up to 5 results
|